Starlink 30556

operational
NORAD ID: 58031 Int'l Des: 2023-156 Owner: SPXS Country: US Constellation: starlink
LEOCIRCULAR

About Starlink 30556

Description loading...

Live Position

Loading 3D Globe...

Upcoming Passes

Altitude History

Altitude vs Time

uPlot chart will show altitude changes over time

Two-Line Element Set

1 58031U 23156D 25258.20837074 .00001917 00000-0 76837-4 0 9990
2 58031 53.1576 183.4856 0001262 80.5195 279.5948 15.30200215109294
Epoch: Sep 15, 2025 • Age: 28 hours

Current Status

Altitude 490.7 km
Velocity 7.62 km/s
Sub-Earth Point -43.89°S, 2.37°E
Launch Date Oct 9, 2023
Age 1.9 years
Type internet

Technical Details

Classification Payload
Mass 730.00 kg
Dry Mass 700.00 kg
Total Mass 730.00 kg
Length 0.30 m
Diameter 4.10 m
Span 29.00 m
Shape Box + pan
Manufacturer SPXS
Bus Type Starlink V2M
Phase Status In Orbit
Owner/State SPXS/US

Large Constellations

Loading constellations...